TimePDT,TemperatureF,Dew PointF,Humidity,Sea Level PressureIn,VisibilityMPH,Wind Direction,Wind SpeedMPH,Gust SpeedMPH,PrecipitationIn,Events,Conditions,WindDirDegrees,DateUTC
12:58 AM,79.9,50.9,36,29.95,10.0,SSW,10.4,-,N/A,,Clear,200,2013-08-30 07:58:00
1:58 AM,78.3,52.5,41,29.94,10.0,SW,5.8,-,N/A,,Clear,220,2013-08-30 08:58:00
2:58 AM,77.2,53.4,44,29.93,10.0,SSW,5.8,-,N/A,,Clear,200,2013-08-30 09:58:00
3:58 AM,75.0,53.4,47,29.93,10.0,Calm,Calm,-,N/A,,Clear,0,2013-08-30 10:58:00
4:58 AM,72.9,53.6,51,29.93,10.0,South,2.3,-,N/A,,Clear,190,2013-08-30 11:58:00
5:58 AM,72.0,54.9,55,29.95,50.0,SSW,6.9,-,N/A,,Partly Cloudy,200,2013-08-30 12:58:00
6:58 AM,72.5,55.2,54,29.97,50.0,SSW,2.3,-,N/A,,Partly Cloudy,210,2013-08-30 13:58:00
7:58 AM,75.6,55.0,49,29.98,50.0,SSW,4.6,-,N/A,,Partly Cloudy,200,2013-08-30 14:58:00
8:58 AM,79.9,55.4,43,29.99,50.0,Calm,Calm,-,N/A,,Partly Cloudy,0,2013-08-30 15:58:00
9:58 AM,83.5,54.9,37,29.99,50.0,NNW,2.3,-,N/A,,Partly Cloudy,340,2013-08-30 16:58:00
10:58 AM,87.4,54.1,32,29.99,50.0,Variable,3.5,-,N/A,,Partly Cloudy,0,2013-08-30 17:58:00
11:58 AM,90.9,53.1,28,29.97,50.0,NE,5.8,-,N/A,,Scattered Clouds,50,2013-08-30 18:58:00
12:58 PM,92.8,52.7,26,29.95,50.0,Variable,4.6,-,N/A,,Scattered Clouds,0,2013-08-30 19:58:00
1:58 PM,93.6,56.7,29,29.92,50.0,NNW,3.5,-,N/A,,Scattered Clouds,330,2013-08-30 20:58:00
2:58 PM,96.1,56.1,26,29.88,50.0,Variable,3.5,-,N/A,,Scattered Clouds,0,2013-08-30 21:58:00
3:58 PM,98.1,55.6,24,29.86,40.0,ESE,4.6,-,N/A,,Mostly Cloudy,110,2013-08-30 22:58:00
4:58 PM,97.0,62.8,32,29.86,30.0,East,12.7,-,N/A,,Mostly Cloudy,100,2013-08-30 23:58:00
5:13 PM,95.0,62.6,34,29.94,30.0,ENE,18.4,-,N/A,,Mostly Cloudy,70,2013-08-31 00:13:00
5:33 PM,93.2,62.6,36,29.94,30.0,East,12.7,-,N/A,,Mostly Cloudy,100,2013-08-31 00:33:00
5:58 PM,92.5,62.8,37,29.88,40.0,South,16.1,-,N/A,,Mostly Cloudy,190,2013-08-31 00:58:00
6:58 PM,90.1,63.1,40,29.88,40.0,WSW,15.0,-,N/A,,Mostly Cloudy,240,2013-08-31 01:58:00
7:53 PM,86.0,64.4,48,29.97,30.0,WSW,18.4,25.3,N/A,,Mostly Cloudy,240,2013-08-31 02:53:00
7:58 PM,86.5,63.9,47,29.90,30.0,SW,20.7,25.3,N/A,,Mostly Cloudy,230,2013-08-31 02:58:00
8:58 PM,83.8,64.8,52,29.92,30.0,WSW,20.7,-,N/A,,Overcast,240,2013-08-31 03:58:00
9:58 PM,82.4,64.4,54,29.92,30.0,WSW,18.4,24.2,N/A,,Overcast,240,2013-08-31 04:58:00
10:43 PM,82.4,64.4,54,30.00,10.0,WSW,15.0,-,N/A,,Scattered Clouds,240,2013-08-31 05:43:00
10:58 PM,81.9,64.6,56,29.92,10.0,WSW,16.1,24.2,N/A,,Scattered Clouds,240,2013-08-31 05:58:00
11:13 PM,82.4,64.4,54,30.00,10.0,WSW,19.6,-,N/A,,Mostly Cloudy,250,2013-08-31 06:13:00
11:58 PM,81.5,64.2,56,29.92,10.0,WSW,18.4,-,N/A,,Overcast,250,2013-08-31 06:58:00